CZ-6A DEB, 60971

Orbit data source: Space-Track

CZ-6A DEB, 60971 is space debris in LEO originally from a launch on Tue, 06 Aug 2024 UTC launched from the Taiyaun Space Center, China (TSC). Debris objects in space refer to the collection of defunct objects orbiting the Earth. Examples of debris include non-operational satellites, rocket bodies, and fragments generated from explosions, collisions, or faulty payload assembly.

Loading next visibility...
Identifier
60971, 2024-140LW
Orbit
LEO
Country
Flag of CNCN / PRC
Related business
Manufacturer
SAST
Mission
Spacecraft
Bus & Motor
Unknown
Mass
Unknown
Launch date (UTC)
2024-08-06 (2 years ago)
Launch vehicle
Unknown
Launch site
Taiyaun Space Center, China (TSC)
Object type
Payload
Rocket body
Debris
Shape & HBR
Unknown shape, 0.1 m
Radar Cross Section
Medium (>0.1 m² and <1 m²)

Expand to show TLE details & history
Last TLE update: 1 day ago

TLE from 1 day ago
0 CZ-6A DEB
1 60971U 24140LW  26170.75975771  .00003178  00000-0  61151-3 0  9994
2 60971  89.0487 273.6807 0089594 234.9861 124.2920 14.60822335 97473
Epoch: 2026-06-19T18:14Z
TLE epoch observation values (Epoch: 2026-06-19T18:14:03.066Z)
Latitude
-0.00003°
Longitude
92.18381°
Altitude
729.705 km
Speed
7.471 km/s
True Right ascension
18h 14m 43s
True Declination
0° 00' 00"
Sunlit
Object was in full shadow at epoch
Visualization orbit readout
Latitude
Unknown
Longitude
Unknown
Altitude
Unknown
Speed
Unknown
Apparent Right ascension
Unknown
Apparent Declination
Unknown
Sunlit
N/A
Visualization observer readout
Local Sidereal Time
07:18:48
Azimuth
Unknown
Elevation
Unknown
Doppler factor
Unknown
Orbital elements
Apogee altitude
750.715 km
Perigee altitude
624.109 km
Semi-major axis
7,065.549 km
Eccentricity
0.00896
Inclination
89.0487°
RAAN
273.6807°
Arg. of periapsis
234.9861°
True anomaly
125.13486°
Mean anomaly
124.292°
Eccentric anomaly
124.71396°
Mean motion
3.65447 °/min
Orbital period
98.51 mins
BSTAR
0.00061151
Loading maneuver chart data...
Computing Atmospheric mass density...
Loading historical data...
Loading historical data...
Loading historical data...
Loading historical data...
Loading historical data...
Loading historical data...
Loading historical data...

Documentation

Showing up to 5 results
|